Simultaneous Nadir Overpasses (SNOs) Predictions

Prediction of SNOs between GOES-16 and NPP Satellite Orbit:

Table of predicted SNOs for the next 14.0 days since TLE Epoch: 11/19/2022
Index Date Time (GOES-16) GOES-16 Lat,Lon NPP Lat,Lon Distance(km) Time Diff (sec)
1 11/20/2022 06:36:42 0.01, -75.19 0.65, -77.93 312.93 80
2 11/21/2022 06:20:37 0.01, -75.20 -0.36, -73.39 204.67 80
3 11/22/2022 18:39:52 -0.01, -75.21 -0.81, -78.69 397.38 80
4 11/23/2022 18:23:46 -0.01, -75.22 0.20, -74.16 120.35 80
5 11/25/2022 06:45:34 0.01, -75.22 0.93, -79.43 479.09 80
6 11/26/2022 06:26:48 0.01, -75.22 -0.09, -74.89 38.56 80
7 11/28/2022 18:27:17 -0.01, -75.25 -0.12, -75.64 45.68 80
8 11/29/2022 18:11:12 -0.01, -75.26 0.90, -71.11 472.56 80
9 12/01/2022 06:32:59 0.01, -75.27 0.23, -76.38 125.39 80
10 12/02/2022 06:11:34 0.01, -75.29 -0.79, -71.84 393.33 80
